This is the latest recevied weather packets stored in our database for station/object KC3AWA. If no packets are shown the sender has not sent any weather packets the latest 1 day(s).
| Time | Temp. | Humidity | Pressure | Rain* | Wind** | Luminosity | Snow |
|---|---|---|---|---|---|---|---|
| 1778024555 | 13.89° C | 92% | 1009.2 hPa | 0 mm | 0 m/s | 5 W/m² | - |
| 1778024251 | 13.89° C | 92% | 1009.4 hPa | 0 mm | 0 m/s | 6 W/m² | - |
| 1778023950 | 13.89° C | 91% | 1009.3 hPa | 0 mm | 0 m/s | 10 W/m² | - |
| 1778023646 | 13.89° C | 91% | 1009.2 hPa | 0 mm | 0 m/s | 20 W/m² | - |
| 1778023344 | 13.89° C | 91% | 1009.1 hPa | 0 mm | 0 m/s | 16 W/m² | - |
| 1778023040 | 14.44° C | 91% | 1009.1 hPa | 0 mm | 0 m/s | 13 W/m² | - |
| 1778022740 | 14.44° C | 91% | 1008.9 hPa | 0 mm | 0.45 m/s, 345° | 5 W/m² | - |
| 1778022437 | 14.44° C | 91% | 1009 hPa | 0 mm | 0 m/s | 12 W/m² | - |
| 1778022134 | 14.44° C | 91% | 1009 hPa | 0 mm | 0 m/s | 27 W/m² | - |
| 1778021830 | 14.44° C | 90% | 1008.9 hPa | 0 mm | 0 m/s | 45 W/m² | - |
| 1778021527 | 14.44° C | 90% | 1009 hPa | 0 mm | 0 m/s | 25 W/m² | - |
| 1778021222 | 14.44° C | 90% | 1009 hPa | 0 mm | 0.45 m/s, 326° | 37 W/m² | - |
| 1778020921 | 14.44° C | 90% | 1008.8 hPa | 0 mm | 0.89 m/s, 8° | 76 W/m² | - |
| 1778020618 | 14.44° C | 90% | 1009.2 hPa | 0 mm | 0 m/s | 85 W/m² | - |
| 1778020313 | 14.44° C | 89% | 1009 hPa | 0 mm | 1.34 m/s, 346° | 91 W/m² | - |
| 1778020010 | 14.44° C | 89% | 1009.1 hPa | 0 mm | 0.89 m/s, 354° | 81 W/m² | - |
| 1778019706 | 14.44° C | 89% | 1009 hPa | 0 mm | 0.45 m/s, 73° | 63 W/m² | - |
| 1778019403 | 15° C | 89% | 1009.4 hPa | 0 mm | 0.45 m/s, 294° | 71 W/m² | - |
| 1778019100 | 15° C | 89% | 1009.4 hPa | 1.27 mm | 0 m/s | 19 W/m² | - |
| 1778018797 | 15° C | 89% | 1009.2 hPa | 3.05 mm | 0 m/s | 50 W/m² | - |
| 1778018495 | 15.56° C | 86% | 1009 hPa | 1.78 mm | 1.34 m/s, 229° | 11 W/m² | - |
| 1778018192 | 15.56° C | 84% | 1008.5 hPa | 1.27 mm | 0.45 m/s, 341° | 23 W/m² | - |
| 1778017890 | 16.11° C | 82% | 1008.6 hPa | 1.27 mm | 0 m/s | 38 W/m² | - |
| 1778017588 | 16.67° C | 79% | 1008.9 hPa | 0 mm | 0.89 m/s, 243° | 24 W/m² | - |
| 1778017285 | 17.78° C | 76% | 1008.4 hPa | 0 mm | 0 m/s | 26 W/m² | - |
* Rain latest hour (hover to see other rain measurements)
** Current wind speed in m/s (hover to see current wind gust speed)